| time (UTC) | temp F | wind direction | speed knots | gust knots | rain 1hr in | rain 24hr in | rain mn in | humidity % | barometer mb |
| 20260506061525 | 58 | 163 | 1.7 | 6.1 | 0.00 | 0.00 | 0.00 | 84 | 1012.3 |
| 20260506044600 | 59 | 129 | 0.9 | 6.1 | 0.00 | 0.00 | 0.00 | 81 | 1012.7 |
| 20260506043100 | 60 | 51 | 0.9 | 9.6 | 0.00 | 0.00 | 0.00 | 80 | 1012.8 |
| 20260506041558 | 60 | 87 | 0.9 | 7.8 | 0.00 | 0.00 | 0.00 | 80 | 1012.9 |
| 20260506040036 | 60 | 65 | 0.9 | 7.8 | 0.00 | 0.00 | 0.00 | 80 | 1012.8 |
| 20260506034545 | 60 | 67 | 2.6 | 10.4 | 0.00 | 0.00 | 0.00 | 80 | 1012.8 |
| 20260506033018 | 60 | 42 | 1.7 | 7.8 | 0.00 | 0.00 | 0.00 | 79 | 1012.9 |
| 20260506031518 | 60 | 110 | 0.9 | 7.0 | 0.00 | 0.00 | 0.00 | 78 | 1012.6 |
| 20260506030053 | 61 | 29 | 1.7 | 7.8 | 0.00 | 0.00 | 0.00 | 76 | 1012.8 |
| 20260506024612 | 61 | 214 | 2.6 | 9.6 | 0.00 | 0.00 | 0.00 | 75 | 1012.7 |
| 20260506023035 | 61 | 88 | 3.5 | 7.8 | 0.00 | 0.00 | 0.00 | 74 | 1012.8 |
| 20260506021534 | 62 | 130 | 1.7 | 10.4 | 0.00 | 0.00 | 0.00 | 74 | 1012.5 |
| 20260506020015 | 61 | 184 | 0.9 | 4.3 | 0.00 | 0.00 | 0.00 | 74 | 1012.5 |
| 20260506014515 | 61 | 108 | 1.7 | 7.0 | 0.00 | 0.00 | 0.00 | 74 | 1012.4 |
| 20260506013109 | 61 | 169 | 0.0 | 6.1 | 0.00 | 0.00 | 0.00 | 74 | 1012.2 |
| 20260506011656 | 61 | 169 | 2.6 | 7.0 | 0.00 | 0.00 | 0.00 | 74 | 1012.2 |
| 20260506010039 | 61 | 143 | 0.0 | 5.2 | 0.00 | 0.00 | 0.00 | 73 | 1011.9 |
| 20260506004538 | 61 | 40 | 1.7 | 7.0 | 0.00 | 0.00 | 0.00 | 73 | 1011.8 |
| 20260506003028 | 61 | 135 | 0.0 | 4.3 | 0.00 | 0.00 | 0.00 | 73 | 1011.6 |
| 20260506001526 | 62 | 171 | 2.6 | 8.7 | 0.00 | 0.00 | 0.00 | 71 | 1011.3 |
| 20260506000024 | 63 | 97 | 1.7 | 6.1 | 0.00 | 0.00 | 0.00 | 70 | 1011.2 |
| 20260505234532 | 63 | 126 | 2.6 | 7.8 | 0.00 | 0.00 | 0.00 | 69 | 1011.0 |
| 20260505233023 | 64 | 152 | 0.9 | 5.2 | 0.00 | 0.00 | 0.00 | 69 | 1010.9 |
| 20260505231523 | 65 | 233 | 0.9 | 7.8 | 0.00 | 0.00 | 0.00 | 68 | 1010.7 |
| 20260505230038 | 65 | 160 | 0.0 | 8.7 | 0.00 | 0.00 | 0.00 | 67 | 1010.4 |
| 20260505224522 | 66 | 77 | 1.7 | 8.7 | 0.00 | 0.00 | 0.00 | 66 | 1010.6 |
| 20260505223010 | 68 | 150 | 1.7 | 7.0 | 0.00 | 0.00 | 0.00 | 64 | 1010.6 |
| 20260505221508 | 69 | 23 | 1.7 | 5.2 | 0.00 | 0.00 | 0.00 | 63 | 1010.4 |
| 20260505220007 | 69 | 149 | 0.9 | 7.0 | 0.00 | 0.00 | 0.00 | 63 | 1010.3 |
| 20260505214507 | 70 | 146 | 1.7 | 9.6 | 0.00 | 0.00 | 0.00 | 64 | 1010.3 |
| 20260505213005 | 71 | 129 | 0.9 | 7.0 | 0.00 | 0.00 | 0.00 | 62 | 1010.2 |
| 20260505211505 | 70 | 130 | 0.9 | 7.0 | 0.00 | 0.00 | 0.00 | 65 | 1010.2 |
| 20260505210004 | 71 | 248 | 1.7 | 6.1 | 0.00 | 0.00 | 0.00 | 62 | 1010.2 |
| 20260505204502 | 71 | 152 | 2.6 | 7.8 | 0.00 | 0.00 | 0.00 | 62 | 1010.1 |
| 20260505203116 | 72 | 293 | 0.9 | 10.4 | 0.00 | 0.00 | 0.00 | 60 | 1010.0 |
| 20260505201557 | 72 | 71 | 0.9 | 7.8 | 0.00 | 0.00 | 0.00 | 63 | 1010.1 |
| 20260505200044 | 73 | 103 | 1.7 | 8.7 | 0.00 | 0.00 | 0.00 | 60 | 1010.4 |
| 20260505194550 | 72 | 125 | 2.6 | 9.6 | 0.00 | 0.00 | 0.00 | 62 | 1010.3 |
| 20260505193040 | 72 | 126 | 2.6 | 9.6 | 0.00 | 0.00 | 0.00 | 60 | 1010.5 |
| 20260505191539 | 73 | 96 | 0.0 | 7.8 | 0.00 | 0.00 | 0.00 | 60 | 1010.6 |
| 20260505190038 | 73 | 222 | 1.7 | 11.3 | 0.00 | 0.00 | 0.00 | 61 | 1010.8 |
| 20260505184538 | 73 | 169 | 3.5 | 7.8 | 0.00 | 0.00 | 0.00 | 60 | 1010.9 |
| 20260505183037 | 73 | 27 | 0.0 | 12.2 | 0.00 | 0.00 | 0.00 | 63 | 1010.8 |
| 20260505181536 | 74 | 129 | 0.9 | 10.4 | 0.00 | 0.00 | 0.00 | 60 | 1010.8 |
| 20260505180034 | 75 | 136 | 2.6 | 7.8 | 0.00 | 0.00 | 0.00 | 58 | 1010.8 |
| 20260505174531 | 74 | 230 | 0.9 | 7.0 | 0.00 | 0.00 | 0.00 | 62 | 1010.9 |
| 20260505173040 | 73 | 254 | 2.6 | 11.3 | 0.00 | 0.00 | 0.00 | 60 | 1011.2 |
| 20260505171510 | 73 | 136 | 2.6 | 7.8 | 0.00 | 0.00 | 0.00 | 59 | 1011.1 |
| 20260505170013 | 73 | 93 | 2.6 | 7.8 | 0.00 | 0.00 | 0.00 | 64 | 1011.1 |
| 20260505164601 | 72 | 103 | 1.7 | 7.8 | 0.00 | 0.00 | 0.00 | 61 | 1011.3 |
| 20260505163059 | 72 | 104 | 1.7 | 7.0 | 0.00 | 0.00 | 0.00 | 61 | 1011.8 |
| 20260505161550 | 71 | 125 | 2.6 | 8.7 | 0.00 | 0.00 | 0.00 | 63 | 1012.1 |
| 20260505153105 | 71 | 271 | 2.6 | 10.4 | 0.00 | 0.00 | 0.00 | 64 | 1012.6 |
| 20260505151554 | 71 | 124 | 1.7 | 8.7 | 0.00 | 0.00 | 0.00 | 62 | 1012.8 |
| 20260505140107 | 66 | 291 | 0.9 | 6.1 | 0.00 | 0.00 | 0.00 | 71 | 1012.4 |
| 20260505124530 | 59 | 218 | 0.0 | 3.5 | 0.00 | 0.00 | 0.00 | 82 | 1012.6 |
| 20260505123028 | 58 | 326 | 0.0 | 2.6 | 0.00 | 0.00 | 0.00 | 83 | 1012.7 |
| 20260505121531 | 58 | 291 | 0.0 | 6.1 | 0.00 | 0.00 | 0.00 | 83 | 1012.9 |
| 20260505120027 | 58 | 271 | 0.9 | 4.3 | 0.00 | 0.00 | 0.00 | 83 | 1012.9 |
| 20260505114505 | 56 | 123 | 0.0 | 2.6 | 0.00 | 0.00 | 0.00 | 87 | 1012.9 |
| 20260505113004 | 54 | 173 | 0.0 | 2.6 | 0.00 | 0.00 | 0.00 | 86 | 1013.1 |
| 20260505111647 | 55 | 134 | 0.9 | 2.6 | 0.00 | 0.00 | 0.00 | 85 | 1012.7 |
| 20260505101530 | 50 | 159 | 0.0 | 0.9 | 0.00 | 0.00 | 0.00 | 92 | 1012.0 |
| 20260505100034 | 50 | 103 | 0.0 | 0.0 | 0.00 | 0.00 | 0.00 | 92 | 1011.9 |
| 20260505094526 | 50 | 160 | 0.0 | 0.0 | 0.00 | 0.00 | 0.00 | 92 | 1011.9 |
| 20260505093026 | 49 | 94 | 0.0 | 1.7 | 0.00 | 0.00 | 0.00 | 92 | 1011.9 |
| 20260505091524 | 50 | 146 | 0.0 | 0.9 | 0.00 | 0.00 | 0.00 | 91 | 1011.8 |
| 20260505090044 | 50 | 74 | 0.0 | 0.9 | 0.00 | 0.00 | 0.00 | 91 | 1011.7 |
| 20260505084504 | 50 | 170 | 0.0 | 2.6 | 0.00 | 0.00 | 0.00 | 91 | 1011.9 |
| 20260505083105 | 50 | 60 | 0.0 | 0.9 | 0.00 | 0.00 | 0.00 | 90 | 1012.0 |
| 20260505081559 | 50 | 150 | 0.0 | 0.0 | 0.00 | 0.00 | 0.00 | 90 | 1012.0 |
| 20260505080051 | 50 | 87 | 0.0 | 0.0 | 0.00 | 0.00 | 0.00 | 89 | 1012.0 |
| 20260505074606 | 51 | 61 | 0.0 | 0.9 | 0.00 | 0.00 | 0.00 | 89 | 1012.0 |
| 20260505073052 | 51 | 128 | 0.0 | 0.9 | 0.00 | 0.00 | 0.00 | 89 | 1012.0 |
| 20260505071547 | 51 | 82 | 0.0 | 2.6 | 0.00 | 0.00 | 0.00 | 88 | 1012.1 |